Powrót do katalogu

SL-8 R/B

AktywnyLEO
NORAD 21015·ROCKET BODY·🇷🇺 Russia

Wystrzelony Dec 10, 1990 z Plesetsk Cosmodrome

Loading…

Następne Przeloty (najbliższe 24 godziny)

TLE

ŚwieżeSource: Space-Track

Epoka: Sep 14, 2026, 21:48 UTC

1 21015U 90111B   26257.90886942  .00000230  00000-0  85476-4 0  9998
2 21015  74.0488  60.1922 0021989 210.9303 149.0557 14.37349488970692

Śledź SL-8 R/B w czasie rzeczywistym z AllMySat

Download on the App Store